Home > Weather > Senftenberg > Past weeks

Flag for Germany Weather for the Past 2 Weeks in Senftenberg, Brandenburg, Germany

Now
48 °F

Sprinkles. Partly cloudy.


Feels Like: 42 °F
Forecast: 38 / 47 °F
Wind: 15 mph from South

Location: Dresden-Klotzsche

Current Time: Feb 9, 2016 at 9:47:51 PM

Latest Report: Feb 9, 2016 at 9:20 PM


Visibility: N/A

Pressure: 29.12 "Hg

Humidity: 76%

Dew point: 41 °F

Location of SenftenbergLocation

Historic Weather in Senftenberg — Graph

°F

Senftenberg Temperature Yesterday

Maximum temperature yesterday: 52 °F (at 2:20 PM)
Minimum temperature yesterday: 41 °F (at 4:20 AM)
Average temperature yesterday: 46 °F

High & Low Weather Summary for the Past Weeks

 TemperatureHumidityPressure
High55 °F (Jan 27, 1:50 PM)100% (Jan 25, 11:20 PM)30.30 "Hg (Jan 25, 11:20 PM)
Low32 °F (Jan 29, 2:50 AM)46% (Jan 29, 11:50 AM)29.12 "Hg (Feb 9, 7:50 PM)
Average44 °F74%29.94 "Hg
* Reported Jan 25 8:20 PM — Feb 9 8:20 PM, Senftenberg, Weather by CustomWeather, © 2016

Note: Actual official high and low records may vary slightly from our data, if they occured in-between our weather recording intervals... More about our weather records

Advertising

Senftenberg Weather History for the Previous 24 Hours

 ConditionsComfort  
Time TempWeatherWind HumidityBarometerVisibility
8:20 PM
Tue, Feb 9
48 °FClear.18 mph71%29.12 "Hg10 mi
7:50 PM48 °FClear.21 mph71%29.12 "Hg10 mi
7:20 PM48 °FClear.16 mph71%29.15 "Hg10 mi
6:50 PM48 °FClear.18 mph71%29.15 "Hg10 mi
6:20 PM48 °FClear.20 mph71%29.18 "Hg10 mi
5:50 PM48 °FClear.17 mph71%29.21 "Hg10 mi
5:20 PM46 °FClear.16 mph76%29.21 "Hg10 mi
4:50 PM46 °FSunny.21 mph76%29.21 "Hg10 mi
4:20 PM45 °FPartly sunny.17 mph81%29.24 "HgN/A
3:20 PM45 °FPartly sunny.14 mph81%29.30 "HgN/A
2:20 PM46 °FLight rain. Partly sunny.14 mph66%29.39 "HgN/A
1:50 PM46 °FPartly sunny.16 mph66%29.39 "HgN/A
1:20 PM48 °FSunny.14 mph58%29.42 "Hg10 mi
12:20 PM48 °FSunny.10 mph58%29.45 "Hg10 mi
11:20 AM48 °FBroken clouds.20 mph58%29.50 "HgN/A
10:50 AM48 °FBroken clouds.18 mph58%29.50 "HgN/A
10:20 AM48 °FBroken clouds.16 mph58%29.50 "HgN/A
9:50 AM46 °FPassing clouds.17 mph57%29.50 "HgN/A
9:20 AM45 °FPassing clouds.16 mph61%29.53 "HgN/A
8:50 AM45 °FPassing clouds.13 mph61%29.53 "HgN/A
8:20 AM45 °FSunny.14 mph61%29.53 "Hg10 mi
7:50 AM43 °FPassing clouds.13 mph66%29.53 "HgN/A
7:20 AM45 °FPassing clouds.17 mph61%29.53 "HgN/A
6:50 AM45 °FClear.14 mph61%29.53 "Hg10 mi
6:20 AM45 °FClear.16 mph61%29.53 "Hg10 mi
5:50 AM45 °FClear.15 mph61%29.53 "Hg10 mi
5:20 AM45 °FClear.14 mph61%29.53 "Hg10 mi
4:50 AM43 °FPassing clouds.16 mph66%29.53 "HgN/A
4:20 AM43 °FPassing clouds.17 mph66%29.53 "HgN/A
3:50 AM45 °FClear.20 mph57%29.53 "Hg10 mi
3:20 AM45 °FClear.20 mph61%29.53 "Hg10 mi
2:50 AM45 °FClear.20 mph61%29.53 "Hg10 mi
2:20 AM45 °FClear.18 mph61%29.53 "Hg10 mi
1:50 AM45 °FPassing clouds.18 mph61%29.53 "HgN/A
1:20 AM43 °FClear.16 mph66%29.50 "Hg10 mi
12:50 AM43 °FClear.17 mph66%29.50 "Hg10 mi
12:20 AM43 °FClear.18 mph66%29.50 "Hg10 mi
11:20 PM
Mon, Feb 8
43 °FClear.18 mph66%29.50 "Hg10 mi
10:50 PM45 °FClear.18 mph61%29.50 "Hg10 mi
10:20 PM45 °FClear.18 mph66%29.50 "Hg10 mi
9:50 PM45 °FClear.16 mph71%29.50 "Hg10 mi
9:20 PM45 °FClear.14 mph76%29.47 "Hg10 mi
Weather by CustomWeather, © 2016

See weather overviewHow to use our weather pages